QPF
0.00 0.00 0.00 0.00 0.00 0.00 0.00 0.00 0.00 0.00 0.00 0.00 0.00 0.00 0.00 0.00 0.00 0.00 0.00 0.00 0.00 0.00 0.00 0.00 0.00 0.00 0.00 0.00 0.00 0.00 0.00 0.00 0.00 0.00 0.00 0.00 0.00 0.00 0.00 0.00 0.00 0.00 0.00 0.00
0.00 0.00 0.00 0.00 0.00 0.00 0.00 0.00 0.00 0.00 0.00 0.00 0.00 0.00 0.00 0.00 0.00 0.00 0.00 0.00 0.00 0.00 0.00 0.00 0.00 0.00 0.00 0.00 0.00 0.00 0.00 0.00 0.00 0.00 0.00 0.00 0.00 0.00 0.00 0.00 0.00 0.00 0.00 0.00
0.00 0.00 0.00 0.00 0.00 0.00 0.00 0.00 0.00 0.00 0.00 0.00 0.00 0.00 0.00 0.00 0.00 0.00 0.00 0.00 0.00 0.00 0.00 0.00 0.00 0.00 0.00 0.00 0.00 0.00 0.00 0.00 0.00 0.00 0.00 0.00 0.00 0.00 0.00 0.00 0.00 0.00 0.00 0.00
0.00 0.00 0.00 0.00 0.00 0.00 0.00 0.00 0.00 0.00 0.00 0.00 0.00 0.00 0.00 0.00 0.00 0.00 0.00 0.00 0.00 0.00 0.00 0.00 0.00 0.00 0.00 0.00 0.00 0.00 0.00 0.00 0.00 0.00 0.00 0.00 0.00 0.00 0.00 0.00 0.00 0.00 0.00 0.00
0.00 0.00 0.00 0.00 0.00 0.00 0.00 0.00 0.00 0.00 0.00 0.00 0.00 0.00 0.00 0.00 0.00 0.00 0.00 0.00 0.00 0.00 0.00 0.00 0.00 0.00 0.00 0.00 0.00 0.00 0.00 0.00 0.00 0.00 0.00 0.00 0.00 0.00 0.00 0.00 0.00 0.00 0.00 0.00
0.00 0.00 0.00 0.00 0.00 0.00 0.00 0.00 0.00 0.00 0.00 0.00 0.00 0.00 0.00 0.00 0.00 0.00 0.00 0.00 0.00 0.00 0.00 0.00 0.00 0.00 0.00 0.00 0.00 0.00 0.00 0.00 0.00 0.00 0.00 0.00 0.00 0.00 0.00 0.00 0.00 0.00 0.00 0.00
0.00 0.00 0.00 0.00 0.00 0.00 0.00 0.00 0.00 0.00 0.00 0.00 0.00 0.00 0.00 0.00 0.00 0.00 0.00 0.00 0.00 0.00 0.00 0.00 0.00 0.00 0.00 0.00 0.00 0.00 0.00 0.00 0.00 0.00 0.00 0.00 0.00 0.00 0.00 0.00 0.00 0.00 0.00 0.00
0.00 0.00 0.00 0.00 0.00 0.00 0.00 0.00 0.00 0.00 0.00 0.00 0.00 0.00 0.00 0.00 0.00 0.00 0.00 0.00 0.00 0.00 0.00 0.00 0.00 0.00 0.00 0.00 0.00 0.00 0.00 0.00 0.00 0.00 0.00 0.00 0.00 0.00 0.00 0.00 0.00 0.00 0.00 0.00
0.00 0.00 0.00 0.00 0.00 0.00 0.00 0.00 0.00 0.00 0.00 0.00 0.00 0.00 0.00 0.00 0.00 0.00 0.00 0.00 0.00 0.00 0.00 0.00 0.00 0.00 0.00 0.00 0.00 0.00 0.00 0.00 0.00 0.00 0.00 0.00 0.00 0.00 0.00 0.00 0.00 0.00 0.00 0.00
0.00 0.00 0.00 0.00 0.00 0.00 0.00 0.00 0.00 0.00 0.00 0.00 0.00 0.00 0.00 0.00 0.00 0.00 0.00 0.00 0.00 0.00 0.00 0.00 0.00 0.00 0.00 0.00 0.00 0.00 0.00 0.00 0.00 0.00 0.00 0.00 0.00 0.00 0.00 0.00 0.00 0.00 0.00 0.00
0.00 0.00 0.00 0.00 0.00 0.00 0.00 0.00 0.00 0.00 0.00 0.00 0.00 0.00 0.00 0.00 0.00 0.00 0.00 0.00 0.00 0.00 0.00 0.00 0.00 0.00 0.00 0.00 0.00 0.00 0.00 0.00 0.00 0.00 0.00 0.00 0.00 0.00 0.00 0.00 0.00 0.00 0.00 0.00
0.00 0.00 0.00 0.00 0.00 0.00 0.00 0.00 0.00 0.00 0.00 0.00 0.00 0.00 0.00 0.00 0.00 0.00 0.00 0.00 0.00 0.00 0.00 0.00 0.00 0.00 0.00 0.00 0.00 0.00 0.00 0.00 0.00 0.00 0.00 0.00 0.00 0.00 0.00 0.00 0.00 0.00 0.00 0.01
0.00 0.00 0.00 0.00 0.00 0.00 0.00 0.00 0.00 0.00 0.00 0.00 0.00 0.00 0.00 0.00 0.00 0.00 0.00 0.00 0.00 0.00 0.00 0.00 0.00 0.00 0.00 0.00 0.00 0.00 0.00 0.00 0.00 0.00 0.00 0.00 0.00 0.00 0.00 0.00 0.00 0.00 0.00 0.00
0.00 0.00 0.00 0.00 0.00 0.00 0.00 0.00 0.00 0.00 0.00 0.00 0.00 0.00 0.00 0.00 0.00 0.00 0.00 0.00 0.00 0.00 0.00 0.00 0.00 0.00 0.00 0.00 0.00 0.00 0.00 0.00 0.00 0.00 0.00 0.00 0.00 0.00 0.00 0.00 0.00 0.00 0.00 0.00
0.00 0.00 0.00 0.00 0.00 0.00 0.00 0.00 0.00 0.00 0.00 0.00 0.00 0.00 0.00 0.00 0.00 0.00 0.00 0.00 0.00 0.00 0.00 0.00 0.00 0.00 0.00 0.00 0.00 0.00 0.00 0.00 0.00 0.00 0.00 0.00 0.00 0.00 0.00 0.00 0.00 0.00 0.00 0.00
0.00 0.00 0.00 0.00 0.00 0.00 0.00 0.00 0.00 0.00 0.00 0.00 0.00 0.00 0.00 0.00 0.00 0.00 0.00 0.00 0.00 0.00 0.00 0.00 0.00 0.00 0.00 0.00 0.00 0.00 0.00 0.00 0.00 0.00 0.00 0.00 0.00 0.00 0.00 0.00 0.01 0.01 0.01 0.00
0.00 0.00 0.00 0.00 0.00 0.00 0.00 0.00 0.00 0.00 0.00 0.00 0.00 0.00 0.00 0.00 0.00 0.00 0.00 0.00 0.00 0.00 0.00 0.00 0.00 0.00 0.00 0.00 0.00 0.00 0.00 0.00 0.00 0.00 0.00 0.00 0.00 0.00 0.00 0.01 0.01 0.01 0.01 0.01
0.00 0.00 0.00 0.00 0.00 0.00 0.00 0.00 0.00 0.00 0.00 0.00 0.00 0.00 0.00 0.00 0.00 0.00 0.00 0.00 0.00 0.00 0.00 0.00 0.00 0.00 0.00 0.00 0.00 0.00 0.00 0.00 0.00 0.00 0.00 0.00 0.00 0.01 0.01 0.01 0.01 0.01 0.01 0.01
0.00 0.00 0.00 0.00 0.00 0.00 0.00 0.00 0.00 0.00 0.00 0.00 0.00 0.00 0.00 0.00 0.00 0.00 0.00 0.00 0.00 0.00 0.00 0.00 0.00 0.00 0.00 0.00 0.00 0.00 0.00 0.00 0.00 0.00 0.00 0.01 0.01 0.01 0.01 0.01 0.01 0.01 0.01 0.01
0.00 0.00 0.00 0.00 0.00 0.00 0.00 0.00 0.00 0.00 0.00 0.00 0.00 0.00 0.00 0.00 0.00 0.00 0.00 0.00 0.00 0.00 0.00 0.00 0.00 0.00 0.00 0.00 0.00 0.00 0.00 0.00 0.01 0.01 0.01 0.01 0.01 0.01 0.01 0.01 0.01 0.01 0.01 0.01
0.00 0.00 0.00 0.00 0.00 0.00 0.00 0.00 0.00 0.00 0.00 0.00 0.00 0.00 0.00 0.00 0.00 0.00 0.00 0.00 0.00 0.00 0.00 0.00 0.00 0.00 0.00 0.00 0.00 0.00 0.00 0.01 0.01 0.01 0.01 0.01 0.01 0.01 0.01 0.01 0.01 0.00 0.01 0.01
0.00 0.00 0.00 0.00 0.00 0.00 0.00 0.00 0.00 0.00 0.00 0.00 0.00 0.00 0.00 0.00 0.00 0.00 0.00 0.00 0.00 0.00 0.00 0.00 0.00 0.00 0.00 0.00 0.00 0.00 0.00 0.00 0.00 0.00 0.00 0.00 0.00 0.00 0.00 0.00 0.00 0.00 0.00 0.00
0.00 0.00 0.00 0.00 0.00 0.00 0.00 0.00 0.00 0.00 0.00 0.00 0.00 0.00 0.00 0.00 0.00 0.00 0.00 0.00 0.00 0.00 0.00 0.00 0.00 0.00 0.00 0.00 0.00 0.00 0.00 0.00 0.00 0.00 0.00 0.00 0.00 0.00 0.00 0.00 0.00 0.00 0.00 0.00
0.00 0.00 0.00 0.00 0.00 0.00 0.00 0.00 0.00 0.00 0.00 0.00 0.00 0.00 0.00 0.00 0.00 0.00 0.00 0.00 0.00 0.00 0.00 0.00 0.00 0.00 0.00 0.00 0.00 0.00 0.00 0.00 0.00 0.00 0.00 0.00 0.00 0.01 0.01 0.01 0.01 0.00 0.00 0.01
0.00 0.00 0.00 0.00 0.00 0.00 0.00 0.00 0.00 0.00 0.00 0.00 0.00 0.00 0.00 0.00 0.00 0.00 0.00 0.00 0.00 0.00 0.00 0.00 0.00 0.00 0.00 0.00 0.00 0.00 0.00 0.00 0.00 0.00 0.00 0.01 0.01 0.01 0.01 0.01 0.01 0.01 0.01 0.00
0.00 0.00 0.00 0.00 0.00 0.00 0.00 0.00 0.00 0.00 0.00 0.00 0.00 0.00 0.00 0.00 0.00 0.00 0.00 0.00 0.00 0.00 0.00 0.00 0.00 0.00 0.00 0.00 0.00 0.00 0.00 0.00 0.00 0.00 0.00 0.00 0.01 0.01 0.01 0.01 0.01 0.01 0.00 0.00
0.00 0.00 0.00 0.00 0.00 0.00 0.00 0.00 0.00 0.00 0.00 0.00 0.00 0.00 0.00 0.00 0.00 0.00 0.00 0.00 0.00 0.00 0.00 0.00 0.00 0.00 0.00 0.00 0.00 0.00 0.00 0.00 0.00 0.00 0.00 0.01 0.01 0.01 0.01 0.01 0.01 0.00 0.00 0.00
MSLP
1011.38 1011.89 1012.36 1012.77 1013.06 1013.21 1013.21 1013.04 1012.73 1012.33 1011.88 1011.47 1011.15 1010.98 1010.99 1011.20 1011.58 1012.11 1012.73 1013.38 1014.00 1014.54 1014.98 1015.29 1015.48 1015.56 1015.55 1015.47 1015.35 1015.20 1015.02 1014.82 1014.58 1014.32 1014.01 1013.65 1013.24 1012.78 1012.27 1011.71 1011.09 1010.42 1009.70 1008.94
1011.60 1012.00 1012.34 1012.59 1012.74 1012.76 1012.65 1012.44 1012.14 1011.80 1011.47 1011.20 1011.03 1011.01 1011.16 1011.46 1011.92 1012.47 1013.10 1013.73 1014.32 1014.83 1015.25 1015.55 1015.74 1015.84 1015.85 1015.80 1015.70 1015.56 1015.39 1015.19 1014.96 1014.68 1014.35 1013.97 1013.54 1013.05 1012.50 1011.89 1011.23 1010.52 1009.76 1008.95
1011.97 1012.23 1012.41 1012.50 1012.49 1012.39 1012.20 1011.95 1011.67 1011.40 1011.18 1011.04 1011.02 1011.14 1011.40 1011.79 1012.29 1012.87 1013.48 1014.08 1014.64 1015.12 1015.52 1015.81 1016.00 1016.11 1016.14 1016.11 1016.03 1015.91 1015.75 1015.55 1015.31 1015.02 1014.68 1014.28 1013.81 1013.30 1012.72 1012.08 1011.39 1010.65 1009.86 1009.03
1012.41 1012.52 1012.53 1012.46 1012.31 1012.09 1011.84 1011.58 1011.34 1011.14 1011.03 1011.01 1011.12 1011.36 1011.71 1012.17 1012.70 1013.28 1013.87 1014.44 1014.96 1015.41 1015.78 1016.06 1016.25 1016.37 1016.41 1016.40 1016.33 1016.22 1016.06 1015.85 1015.59 1015.28 1014.92 1014.50 1014.02 1013.48 1012.89 1012.24 1011.53 1010.78 1009.98 1009.15
1012.83 1012.77 1012.63 1012.41 1012.15 1011.86 1011.57 1011.32 1011.12 1011.01 1011.00 1011.10 1011.32 1011.65 1012.07 1012.57 1013.12 1013.69 1014.26 1014.79 1015.28 1015.70 1016.04 1016.31 1016.49 1016.61 1016.65 1016.64 1016.57 1016.44 1016.26 1016.03 1015.75 1015.42 1015.04 1014.60 1014.11 1013.56 1012.97 1012.32 1011.62 1010.88 1010.09 1009.26
1013.10 1012.90 1012.63 1012.31 1011.97 1011.64 1011.36 1011.15 1011.02 1011.00 1011.09 1011.29 1011.59 1011.99 1012.46 1012.98 1013.53 1014.08 1014.62 1015.13 1015.58 1015.96 1016.28 1016.53 1016.70 1016.80 1016.84 1016.80 1016.71 1016.55 1016.34 1016.08 1015.77 1015.41 1015.00 1014.55 1014.06 1013.52 1012.93 1012.30 1011.62 1010.89 1010.12 1009.31
1013.15 1012.85 1012.49 1012.12 1011.76 1011.45 1011.21 1011.07 1011.03 1011.10 1011.28 1011.56 1011.93 1012.37 1012.86 1013.39 1013.92 1014.45 1014.96 1015.43 1015.85 1016.21 1016.50 1016.72 1016.87 1016.95 1016.95 1016.88 1016.75 1016.55 1016.30 1016.00 1015.65 1015.26 1014.84 1014.38 1013.88 1013.35 1012.78 1012.17 1011.51 1010.81 1010.05 1009.25
1012.96 1012.61 1012.23 1011.86 1011.54 1011.29 1011.14 1011.09 1011.14 1011.31 1011.56 1011.90 1012.31 1012.77 1013.27 1013.78 1014.29 1014.78 1015.26 1015.69 1016.08 1016.41 1016.68 1016.87 1016.99 1017.03 1017.00 1016.88 1016.70 1016.45 1016.15 1015.80 1015.42 1015.01 1014.57 1014.10 1013.61 1013.09 1012.54 1011.94 1011.30 1010.61 1009.86 1009.06
1012.58 1012.23 1011.88 1011.58 1011.35 1011.20 1011.16 1011.21 1011.37 1011.61 1011.93 1012.31 1012.74 1013.19 1013.66 1014.14 1014.62 1015.08 1015.51 1015.92 1016.27 1016.57 1016.81 1016.97 1017.06 1017.06 1016.97 1016.81 1016.57 1016.27 1015.93 1015.54 1015.13 1014.70 1014.25 1013.78 1013.30 1012.78 1012.23 1011.64 1011.00 1010.30 1009.55 1008.75
1012.10 1011.81 1011.55 1011.35 1011.24 1011.22 1011.30 1011.46 1011.71 1012.02 1012.37 1012.77 1013.18 1013.61 1014.05 1014.49 1014.92 1015.34 1015.74 1016.11 1016.43 1016.70 1016.91 1017.03 1017.07 1017.03 1016.89 1016.68 1016.39 1016.05 1015.67 1015.25 1014.82 1014.38 1013.93 1013.46 1012.97 1012.46 1011.90 1011.30 1010.64 1009.92 1009.16 1008.34
1011.65 1011.45 1011.31 1011.25 1011.28 1011.39 1011.58 1011.85 1012.16 1012.50 1012.88 1013.26 1013.65 1014.04 1014.43 1014.82 1015.21 1015.58 1015.94 1016.27 1016.56 1016.80 1016.96 1017.05 1017.04 1016.94 1016.76 1016.50 1016.17 1015.80 1015.39 1014.96 1014.52 1014.08 1013.62 1013.16 1012.66 1012.14 1011.56 1010.93 1010.25 1009.50 1008.70 1007.86
1011.34 1011.26 1011.25 1011.33 1011.49 1011.72 1012.01 1012.34 1012.69 1013.06 1013.42 1013.77 1014.12 1014.46 1014.80 1015.14 1015.48 1015.81 1016.13 1016.43 1016.68 1016.87 1016.99 1017.02 1016.96 1016.81 1016.58 1016.27 1015.91 1015.52 1015.09 1014.66 1014.22 1013.79 1013.34 1012.87 1012.37 1011.82 1011.22 1010.56 1009.84 1009.06 1008.23 1007.37
1011.23 1011.27 1011.40 1011.60 1011.87 1012.19 1012.54 1012.91 1013.28 1013.63 1013.96 1014.28 1014.58 1014.87 1015.16 1015.46 1015.75 1016.04 1016.32 1016.57 1016.77 1016.91 1016.97 1016.94 1016.82 1016.62 1016.33 1015.99 1015.60 1015.18 1014.76 1014.33 1013.90 1013.48 1013.03 1012.57 1012.06 1011.49 1010.86 1010.17 1009.41 1008.60 1007.75 1006.88
1011.34 1011.49 1011.72 1012.01 1012.35 1012.73 1013.11 1013.49 1013.84 1014.17 1014.47 1014.74 1015.00 1015.25 1015.50 1015.75 1016.01 1016.26 1016.49 1016.69 1016.83 1016.91 1016.89 1016.80 1016.61 1016.34 1016.01 1015.62 1015.21 1014.78 1014.36 1013.94 1013.53 1013.11 1012.68 1012.21 1011.69 1011.11 1010.46 1009.74 1008.96 1008.13 1007.28 1006.42
1011.62 1011.85 1012.15 1012.50 1012.88 1013.27 1013.65 1014.01 1014.34 1014.63 1014.89 1015.12 1015.35 1015.57 1015.79 1016.02 1016.24 1016.45 1016.64 1016.78 1016.85 1016.84 1016.75 1016.57 1016.31 1015.97 1015.58 1015.16 1014.73 1014.29 1013.87 1013.47 1013.07 1012.66 1012.24 1011.78 1011.25 1010.66 1010.00 1009.27 1008.48 1007.66 1006.82 1006.00
1011.99 1012.27 1012.60 1012.97 1013.35 1013.73 1014.09 1014.41 1014.70 1014.96 1015.19 1015.40 1015.61 1015.81 1016.02 1016.23 1016.42 1016.60 1016.73 1016.80 1016.79 1016.70 1016.52 1016.25 1015.91 1015.51 1015.07 1014.61 1014.15 1013.72 1013.30 1012.91 1012.52 1012.13 1011.72 1011.26 1010.73 1010.14 1009.48 1008.75 1007.98 1007.17 1006.38 1005.60
1012.36 1012.65 1012.99 1013.34 1013.70 1014.05 1014.36 1014.65 1014.91 1015.14 1015.35 1015.55 1015.75 1015.96 1016.16 1016.35 1016.53 1016.66 1016.73 1016.73 1016.65 1016.47 1016.19 1015.84 1015.42 1014.95 1014.47 1013.98 1013.51 1013.08 1012.67 1012.29 1011.91 1011.53 1011.13 1010.67 1010.15 1009.57 1008.91 1008.21 1007.46 1006.70 1005.95 1005.24
1012.65 1012.94 1013.25 1013.57 1013.88 1014.18 1014.46 1014.71 1014.94 1015.15 1015.36 1015.57 1015.78 1015.99 1016.19 1016.38 1016.52 1016.62 1016.63 1016.56 1016.39 1016.12 1015.77 1015.34 1014.85 1014.34 1013.82 1013.32 1012.85 1012.41 1012.02 1011.65 1011.28 1010.91 1010.51 1010.06 1009.55 1008.97 1008.34 1007.66 1006.95 1006.24 1005.56 1004.91
1012.82 1013.07 1013.35 1013.62 1013.89 1014.14 1014.38 1014.60 1014.82 1015.03 1015.24 1015.46 1015.69 1015.91 1016.11 1016.29 1016.40 1016.45 1016.41 1016.27 1016.02 1015.68 1015.25 1014.76 1014.24 1013.69 1013.16 1012.65 1012.19 1011.77 1011.39 1011.03 1010.68 1010.32 1009.92 1009.47 1008.96 1008.40 1007.79 1007.14 1006.48 1005.83 1005.20 1004.62
1012.85 1013.07 1013.30 1013.54 1013.76 1013.97 1014.18 1014.39 1014.59 1014.81 1015.04 1015.27 1015.51 1015.73 1015.93 1016.09 1016.17 1016.17 1016.07 1015.86 1015.56 1015.15 1014.68 1014.15 1013.60 1013.05 1012.52 1012.03 1011.59 1011.19 1010.83 1010.48 1010.14 1009.77 1009.37 1008.92 1008.42 1007.86 1007.27 1006.66 1006.04 1005.44 1004.88 1004.34
1012.78 1012.97 1013.17 1013.36 1013.55 1013.74 1013.92 1014.12 1014.33 1014.55 1014.78 1015.03 1015.27 1015.49 1015.68 1015.80 1015.84 1015.79 1015.64 1015.38 1015.02 1014.57 1014.07 1013.53 1012.98 1012.44 1011.93 1011.47 1011.05 1010.68 1010.33 1009.99 1009.65 1009.28 1008.87 1008.41 1007.91 1007.36 1006.79 1006.21 1005.64 1005.08 1004.57 1004.08
1012.65 1012.82 1012.99 1013.16 1013.33 1013.50 1013.68 1013.87 1014.08 1014.30 1014.54 1014.78 1015.02 1015.22 1015.37 1015.46 1015.45 1015.35 1015.15 1014.84 1014.44 1013.97 1013.45 1012.91 1012.38 1011.86 1011.38 1010.95 1010.56 1010.21 1009.87 1009.54 1009.19 1008.81 1008.39 1007.92 1007.41 1006.87 1006.32 1005.77 1005.23 1004.72 1004.25 1003.80
1012.50 1012.67 1012.83 1012.99 1013.15 1013.31 1013.49 1013.68 1013.89 1014.11 1014.35 1014.58 1014.78 1014.95 1015.07 1015.10 1015.05 1014.89 1014.63 1014.29 1013.86 1013.37 1012.85 1012.33 1011.81 1011.32 1010.87 1010.47 1010.10 1009.75 1009.42 1009.08 1008.71 1008.31 1007.87 1007.39 1006.88 1006.35 1005.81 1005.29 1004.79 1004.33 1003.89 1003.48
1012.38 1012.56 1012.72 1012.89 1013.06 1013.22 1013.40 1013.60 1013.80 1014.01 1014.23 1014.43 1014.60 1014.73 1014.79 1014.76 1014.65 1014.44 1014.14 1013.76 1013.30 1012.81 1012.29 1011.77 1011.27 1010.80 1010.37 1009.98 1009.61 1009.27 1008.92 1008.56 1008.17 1007.75 1007.29 1006.80 1006.28 1005.76 1005.25 1004.75 1004.29 1003.87 1003.47 1003.10
1012.32 1012.52 1012.70 1012.89 1013.07 1013.24 1013.43 1013.62 1013.82 1014.01 1014.20 1014.36 1014.49 1014.56 1014.55 1014.47 1014.30 1014.04 1013.69 1013.27 1012.80 1012.29 1011.77 1011.25 1010.76 1010.29 1009.86 1009.46 1009.08 1008.71 1008.34 1007.95 1007.53 1007.08 1006.60 1006.10 1005.59 1005.09 1004.60 1004.14 1003.72 1003.34 1002.98 1002.65
1012.33 1012.56 1012.78 1012.98 1013.18 1013.37 1013.56 1013.75 1013.93 1014.10 1014.25 1014.37 1014.44 1014.45 1014.38 1014.24 1014.01 1013.69 1013.30 1012.85 1012.34 1011.82 1011.28 1010.75 1010.24 1009.76 1009.31 1008.88 1008.47 1008.07 1007.66 1007.23 1006.78 1006.31 1005.82 1005.31 1004.81 1004.33 1003.88 1003.46 1003.08 1002.74 1002.42 1002.12
1012.44 1012.70 1012.95 1013.18 1013.39 1013.59 1013.78 1013.96 1014.11 1014.25 1014.36 1014.43 1014.44 1014.39 1014.26 1014.05 1013.76 1013.39 1012.96 1012.46 1011.93 1011.37 1010.81 1010.26 1009.72 1009.21 1008.71 1008.25 1007.79 1007.34 1006.88 1006.41 1005.93 1005.44 1004.95 1004.45 1003.97 1003.52 1003.10 1002.73 1002.39 1002.09 1001.81 1001.54
Thickness
5635 5639 5637 5638 5638 5636 5634 5633 5629 5635 5636 5642 5644 5646 5646 5645 5637 5628 5622 5615 5605 5596 5588 5582 5575 5568 5561 5554 5548 5542 5535 5529 5522 5516 5510 5502 5495 5488 5481 5474 5468 5463 5459 5457
5627 5632 5633 5632 5634 5632 5632 5632 5630 5631 5634 5644 5646 5645 5641 5635 5628 5621 5612 5602 5590 5582 5573 5565 5558 5552 5545 5537 5530 5522 5515 5507 5501 5494 5486 5477 5469 5462 5455 5448 5443 5438 5435 5434
5614 5619 5626 5623 5631 5628 5629 5631 5630 5627 5634 5640 5640 5636 5631 5625 5619 5611 5598 5587 5576 5566 5558 5550 5543 5536 5528 5520 5512 5504 5495 5486 5479 5471 5461 5451 5443 5435 5428 5424 5420 5417 5415 5413
5603 5612 5607 5628 5635 5633 5629 5630 5629 5630 5630 5630 5628 5620 5612 5611 5606 5593 5582 5570 5559 5550 5542 5534 5526 5518 5509 5500 5491 5482 5473 5463 5455 5447 5437 5428 5420 5412 5407 5403 5400 5398 5397 5395
5591 5597 5604 5618 5629 5632 5628 5623 5622 5624 5624 5621 5615 5608 5600 5593 5588 5576 5564 5553 5544 5535 5525 5515 5507 5498 5489 5480 5471 5462 5451 5440 5431 5422 5414 5407 5400 5394 5389 5386 5384 5381 5380 5378
5585 5588 5591 5613 5626 5630 5627 5612 5613 5614 5611 5608 5603 5591 5588 5577 5567 5557 5548 5539 5529 5518 5507 5497 5487 5479 5470 5460 5450 5440 5429 5418 5408 5400 5393 5387 5382 5377 5373 5369 5367 5364 5363 5359
5579 5579 5589 5608 5618 5622 5606 5602 5601 5600 5596 5593 5587 5580 5572 5560 5551 5542 5533 5523 5512 5500 5489 5479 5470 5462 5451 5440 5429 5418 5408 5399 5390 5382 5375 5371 5366 5360 5355 5352 5350 5347 5346 5343
5569 5571 5583 5606 5611 5603 5597 5594 5592 5589 5585 5579 5567 5558 5550 5543 5536 5527 5516 5505 5493 5482 5473 5464 5455 5443 5430 5417 5408 5398 5389 5382 5375 5367 5360 5356 5349 5344 5338 5332 5329 5326 5322 5320
5583 5587 5595 5599 5599 5594 5590 5584 5581 5576 5573 5565 5552 5544 5537 5528 5519 5508 5497 5485 5474 5465 5455 5444 5432 5419 5406 5396 5387 5379 5372 5366 5360 5354 5346 5339 5332 5327 5322 5314 5306 5301 5295 5291
5584 5586 5587 5584 5582 5580 5576 5571 5568 5563 5557 5550 5543 5533 5522 5511 5500 5489 5477 5466 5456 5446 5434 5421 5408 5396 5386 5378 5370 5363 5357 5351 5346 5340 5334 5326 5317 5309 5300 5292 5283 5275 5270 5265
5575 5576 5572 5564 5562 5561 5558 5554 5549 5543 5538 5532 5526 5517 5505 5492 5481 5470 5460 5449 5438 5425 5412 5400 5388 5377 5369 5362 5355 5349 5343 5338 5333 5325 5317 5311 5303 5292 5282 5274 5260 5252 5248 5244
5565 5567 5562 5557 5555 5550 5545 5538 5532 5526 5520 5511 5504 5496 5485 5474 5464 5453 5442 5431 5418 5406 5394 5383 5373 5364 5357 5350 5343 5337 5332 5327 5319 5310 5301 5291 5283 5279 5273 5259 5252 5243 5236 5232
5560 5559 5553 5551 5544 5538 5533 5525 5516 5509 5502 5491 5484 5476 5467 5456 5446 5435 5423 5412 5399 5387 5377 5368 5360 5353 5347 5341 5334 5326 5318 5311 5303 5294 5282 5272 5263 5256 5258 5260 5250 5240 5233 5230
5549 5546 5541 5535 5525 5516 5507 5497 5489 5484 5480 5474 5467 5458 5448 5437 5426 5415 5404 5393 5382 5371 5362 5355 5348 5342 5338 5332 5325 5316 5305 5296 5286 5276 5265 5256 5249 5244 5241 5242 5243 5240 5234 5228
5527 5526 5521 5514 5501 5490 5483 5477 5473 5469 5464 5457 5448 5439 5428 5418 5407 5397 5386 5376 5366 5356 5348 5341 5337 5333 5328 5321 5313 5303 5292 5280 5270 5261 5253 5245 5240 5236 5232 5230 5229 5230 5229 5228
5503 5497 5490 5485 5479 5474 5470 5465 5461 5457 5449 5439 5429 5421 5412 5402 5392 5380 5369 5359 5349 5341 5335 5330 5326 5322 5316 5308 5300 5290 5278 5267 5258 5249 5242 5236 5231 5227 5224 5221 5220 5220 5221 5220
5488 5484 5476 5469 5465 5463 5460 5455 5449 5443 5433 5424 5415 5406 5396 5385 5373 5361 5350 5341 5334 5328 5323 5319 5316 5312 5304 5294 5284 5275 5265 5255 5247 5238 5230 5226 5222 5219 5216 5215 5213 5213 5213 5213
5478 5473 5468 5462 5456 5453 5449 5443 5436 5428 5419 5410 5400 5389 5377 5365 5353 5343 5335 5328 5322 5317 5313 5309 5305 5300 5292 5282 5272 5263 5253 5244 5236 5229 5223 5219 5216 5213 5210 5208 5207 5207 5208 5208
5463 5457 5452 5448 5444 5440 5436 5429 5421 5412 5403 5392 5381 5370 5358 5347 5338 5330 5323 5317 5312 5310 5307 5301 5296 5289 5280 5269 5261 5252 5243 5236 5229 5223 5218 5215 5212 5207 5204 5203 5202 5201 5201 5202
5447 5442 5437 5433 5431 5425 5419 5412 5403 5393 5384 5373 5362 5351 5340 5331 5323 5318 5313 5307 5302 5299 5296 5290 5285 5278 5270 5260 5252 5243 5235 5229 5224 5219 5214 5209 5205 5202 5199 5198 5197 5196 5196 5196
5431 5427 5422 5416 5412 5407 5401 5393 5383 5374 5366 5355 5345 5336 5327 5319 5312 5307 5302 5299 5295 5289 5284 5280 5274 5267 5260 5252 5245 5236 5228 5222 5217 5211 5206 5201 5198 5195 5193 5191 5189 5189 5190 5191
5418 5412 5407 5401 5395 5389 5383 5375 5367 5360 5350 5340 5331 5322 5314 5307 5302 5296 5290 5285 5283 5279 5275 5269 5263 5256 5250 5244 5235 5226 5219 5212 5207 5201 5196 5192 5189 5186 5185 5184 5183 5184 5185 5186
5406 5401 5395 5389 5384 5377 5369 5361 5354 5346 5337 5327 5317 5309 5301 5295 5289 5283 5281 5275 5270 5267 5264 5258 5253 5248 5241 5233 5223 5215 5208 5202 5197 5192 5188 5184 5182 5180 5179 5180 5181 5182 5183 5185
5394 5389 5384 5378 5371 5364 5356 5349 5340 5331 5322 5313 5304 5297 5290 5284 5279 5272 5267 5264 5260 5256 5251 5246 5242 5236 5229 5219 5211 5204 5199 5194 5189 5184 5181 5179 5177 5175 5175 5176 5178 5180 5182 5184
5380 5375 5369 5362 5356 5350 5343 5333 5323 5314 5305 5296 5290 5283 5276 5270 5264 5261 5255 5251 5247 5244 5239 5234 5229 5222 5214 5206 5201 5196 5192 5187 5182 5179 5177 5173 5171 5169 5169 5171 5173 5177 5181 5183
5365 5360 5354 5348 5341 5332 5323 5315 5305 5297 5289 5282 5275 5269 5263 5257 5252 5248 5244 5240 5234 5231 5226 5221 5214 5208 5202 5197 5193 5189 5186 5182 5177 5173 5169 5167 5166 5166 5166 5168 5171 5176 5180 5182
5348 5341 5334 5326 5319 5311 5304 5297 5288 5280 5273 5267 5261 5257 5252 5247 5242 5237 5233 5228 5223 5218 5212 5207 5201 5195 5192 5189 5186 5183 5180 5176 5172 5168 5166 5165 5164 5164 5165 5167 5171 5176 5181 5183